• în România
  • Lista ţărilor
  • Pe 7 zile
  • Temperatura apei
  • Hartă satelitară
  • Meteo pe hartă
  • Widget-uri
  • user-avatar
    Intrare

    Meteo pe oră la Córdoba

    Astăzi, 24 Noiembrie, Vineri

    Timp Temperatura Precipitaţii Vânt Presiune Umiditate
    00:00 +22°C° 0 mm 5 m/s 722 mmHg 30%
    01:00 +20°C° 0 mm 5 m/s 723 mmHg 33%
    02:00 +19°C° 0 mm 5 m/s 723 mmHg 35%
    03:00 +17°C° 0 mm 5 m/s 723 mmHg 41%
    04:00 +16°C° 0 mm 5 m/s 724 mmHg 46%
    05:00 +14°C° 0 mm 4 m/s 724 mmHg 52%
    06:00 +15°C° 0 mm 4 m/s 725 mmHg 50%
    07:00 +17°C° 0 mm 4 m/s 725 mmHg 48%
    08:00 +18°C° 0 mm 3 m/s 725 mmHg 47%
    09:00 +20°C° 0 mm 4 m/s 725 mmHg 41%
    10:00 +21°C° 0 mm 4 m/s 725 mmHg 36%
    11:00 +23°C° 0 mm 4 m/s 725 mmHg 30%
    12:00 +25°C° 0 mm 4 m/s 725 mmHg 29%
    13:00 +27°C° 0 mm 4 m/s 724 mmHg 27%
    14:00 +28°C° 0 mm 5 m/s 723 mmHg 25%
    15:00 +27°C° 0 mm 5 m/s 723 mmHg 26%
    16:00 +27°C° 0 mm 5 m/s 723 mmHg 27%
    17:00 +27°C° 0 mm 5 m/s 722 mmHg 28%
    18:00 +25°C° 0 mm 4 m/s 723 mmHg 32%
    19:00 +22°C° 0 mm 3 m/s 723 mmHg 35%
    20:00 +20°C° 0 mm 3 m/s 724 mmHg 39%
    21:00 +19°C° 0 mm 2 m/s 724 mmHg 40%
    22:00 +18°C° 0 mm 2 m/s 725 mmHg 42%
    23:00 +17°C° 0 mm 2 m/s 725 mmHg 44%

    Mâine, 25 Noiembrie, Sâmbătă

    Timp Temperatura Precipitaţii Vânt Presiune Umiditate
    00:00 +17°C° 0 mm 2 m/s 725 mmHg 44%
    01:00 +18°C° 0 mm 1 m/s 725 mmHg 45%
    02:00 +18°C° 0 mm 1 m/s 724 mmHg 45%
    03:00 +16°C° 0 mm 1 m/s 724 mmHg 48%
    04:00 +16°C° 0 mm 1 m/s 724 mmHg 51%
    05:00 +15°C° 0 mm 1 m/s 724 mmHg 54%
    06:00 +18°C° 0 mm 1 m/s 725 mmHg 50%
    07:00 +21°C° 0 mm 1 m/s 725 mmHg 45%
    08:00 +23°C° 0 mm 2 m/s 726 mmHg 41%
    09:00 +25°C° 0 mm 2 m/s 726 mmHg 37%
    10:00 +27°C° 0 mm 2 m/s 726 mmHg 33%
    11:00 +29°C° 0 mm 3 m/s 726 mmHg 29%
    12:00 +30°C° 0 mm 3 m/s 725 mmHg 27%
    13:00 +33°C° 0 mm 3 m/s 724 mmHg 25%
    14:00 +34°C° 0 mm 4 m/s 724 mmHg 23%
    15:00 +33°C° 0 mm 4 m/s 723 mmHg 24%
    16:00 +33°C° 0 mm 4 m/s 723 mmHg 25%
    17:00 +33°C° 0 mm 4 m/s 722 mmHg 26%
    18:00 +29°C° 0 mm 4 m/s 722 mmHg 31%
    19:00 +27°C° 0 mm 3 m/s 723 mmHg 36%
    20:00 +25°C° 0 mm 3 m/s 723 mmHg 42%
    21:00 +24°C° 0 mm 3 m/s 723 mmHg 43%
    22:00 +23°C° 0 mm 2 m/s 723 mmHg 45%
    23:00 +21°C° 0 mm 2 m/s 724 mmHg 47%

    Poimâine, 26 Noiembrie, Duminică

    Timp Temperatura Precipitaţii Vânt Presiune Umiditate
    00:00 +21°C° 0 mm 2 m/s 723 mmHg 47%
    01:00 +21°C° 0 mm 2 m/s 723 mmHg 47%
    02:00 +20°C° 0 mm 2 m/s 722 mmHg 46%
    03:00 +20°C° 0 mm 2 m/s 722 mmHg 48%
    04:00 +20°C° 0 mm 2 m/s 722 mmHg 51%
    05:00 +19°C° 0 mm 2 m/s 722 mmHg 53%
    06:00 +23°C° 0 mm 2 m/s 722 mmHg 48%
    07:00 +26°C° 0 mm 3 m/s 722 mmHg 43%
    08:00 +28°C° 0 mm 3 m/s 722 mmHg 39%
    09:00 +30°C° 0 mm 4 m/s 722 mmHg 33%
    10:00 +33°C° 0 mm 4 m/s 722 mmHg 28%
    11:00 +35°C° 0 mm 5 m/s 722 mmHg 23%
    12:00 +36°C° 0 mm 5 m/s 721 mmHg 21%
    13:00 +37°C° 0 mm 5 m/s 720 mmHg 20%
    14:00 +37°C° 0 mm 5 m/s 719 mmHg 19%
    15:00 +37°C° 0 mm 5 m/s 719 mmHg 19%
    16:00 +36°C° 0 mm 5 m/s 719 mmHg 20%
    17:00 +36°C° 0 mm 5 m/s 718 mmHg 21%
    18:00 +34°C° 0 mm 4 m/s 718 mmHg 25%
    19:00 +30°C° 0 mm 3 m/s 719 mmHg 29%
    20:00 +28°C° 0 mm 3 m/s 719 mmHg 32%
    21:00 +27°C° 0 mm 3 m/s 719 mmHg 34%
    22:00 +26°C° 0 mm 3 m/s 720 mmHg 37%
    23:00 +25°C° 0 mm 2 m/s 720 mmHg 39%

    27 Noiembrie, Luni

    Timp Temperatura Precipitaţii Vânt Presiune Umiditate
    00:00 +25°C° 0 mm 3 m/s 720 mmHg 39%
    01:00 +25°C° 0 mm 3 m/s 720 mmHg 39%
    02:00 +24°C° 0 mm 3 m/s 720 mmHg 40%
    03:00 +24°C° 0 mm 3 m/s 720 mmHg 42%
    04:00 +22°C° 0 mm 3 m/s 721 mmHg 44%
    05:00 +22°C° 0 mm 3 m/s 721 mmHg 46%
    06:00 +24°C° 0,1 mm 2 m/s 722 mmHg 44%
    07:00 +26°C° 0,1 mm 2 m/s 723 mmHg 41%
    08:00 +28°C° 0,1 mm 2 m/s 724 mmHg 39%
    09:00 +29°C° 0 mm 3 m/s 724 mmHg 38%
    10:00 +30°C° 0 mm 4 m/s 725 mmHg 36%
    11:00 +32°C° 0 mm 5 m/s 725 mmHg 35%
    12:00 +30°C° 0,2 mm 6 m/s 725 mmHg 39%
    13:00 +29°C° 0,2 mm 7 m/s 724 mmHg 43%
    14:00 +28°C° 0,2 mm 8 m/s 724 mmHg 47%
    15:00 +27°C° 0,2 mm 7 m/s 724 mmHg 49%
    16:00 +26°C° 0,2 mm 6 m/s 724 mmHg 52%
    17:00 +26°C° 0,2 mm 6 m/s 724 mmHg 54%
    18:00 +23°C° 0,1 mm 5 m/s 725 mmHg 58%
    19:00 +22°C° 0,1 mm 4 m/s 725 mmHg 62%
    20:00 +21°C° 0,1 mm 4 m/s 726 mmHg 66%
    21:00 +21°C° 0,1 mm 4 m/s 726 mmHg 67%
    22:00 +20°C° 0,1 mm 3 m/s 726 mmHg 67%
    23:00 +20°C° 0,1 mm 3 m/s 727 mmHg 68%

    28 Noiembrie, Marţi

    Timp Temperatura Precipitaţii Vânt Presiune Umiditate
    00:00 +19°C° 0,1 mm 3 m/s 726 mmHg 69%
    01:00 +19°C° 0,1 mm 2 m/s 726 mmHg 70%
    02:00 +18°C° 0,1 mm 2 m/s 726 mmHg 71%
    03:00 +18°C° 0 mm 2 m/s 726 mmHg 72%
    04:00 +17°C° 0 mm 2 m/s 726 mmHg 72%
    05:00 +17°C° 0 mm 2 m/s 726 mmHg 73%
    06:00 +18°C° 0 mm 2 m/s 727 mmHg 68%
    07:00 +19°C° 0 mm 2 m/s 727 mmHg 64%
    08:00 +21°C° 0 mm 2 m/s 728 mmHg 59%
    09:00 +24°C° 0 mm 3 m/s 727 mmHg 54%
    10:00 +26°C° 0 mm 4 m/s 727 mmHg 49%
    11:00 +28°C° 0 mm 4 m/s 727 mmHg 44%
    12:00 +30°C° 0 mm 4 m/s 726 mmHg 41%
    13:00 +32°C° 0 mm 5 m/s 725 mmHg 38%
    14:00 +33°C° 0 mm 5 m/s 724 mmHg 36%
    15:00 +33°C° 0 mm 5 m/s 724 mmHg 36%
    16:00 +33°C° 0 mm 5 m/s 723 mmHg 36%
    17:00 +33°C° 0 mm 5 m/s 723 mmHg 37%
    18:00 +30°C° 0 mm 5 m/s 723 mmHg 42%
    19:00 +28°C° 0 mm 4 m/s 723 mmHg 47%
    20:00 +26°C° 0 mm 3 m/s 723 mmHg 52%
    21:00 +25°C° 0 mm 3 m/s 723 mmHg 54%
    22:00 +25°C° 0 mm 2 m/s 724 mmHg 57%
    23:00 +24°C° 0 mm 2 m/s 724 mmHg 59%

    29 Noiembrie, Miercuri

    Timp Temperatura Precipitaţii Vânt Presiune Umiditate
    00:00 +24°C° 0 mm 1 m/s 723 mmHg 60%
    01:00 +23°C° 0 mm 1 m/s 723 mmHg 61%
    02:00 +23°C° 0 mm 1 m/s 723 mmHg 63%
    03:00 +22°C° 0 mm 1 m/s 723 mmHg 65%
    04:00 +22°C° 0 mm 1 m/s 723 mmHg 67%
    05:00 +21°C° 0 mm 1 m/s 723 mmHg 69%
    06:00 +24°C° 0 mm 2 m/s 723 mmHg 61%
    07:00 +26°C° 0 mm 4 m/s 724 mmHg 54%
    08:00 +28°C° 0 mm 5 m/s 724 mmHg 47%
    09:00 +32°C° 0 mm 5 m/s 724 mmHg 41%
    10:00 +34°C° 0 mm 6 m/s 723 mmHg 36%
    11:00 +36°C° 0 mm 6 m/s 723 mmHg 31%
    12:00 +38°C° 0 mm 6 m/s 722 mmHg 29%
    13:00 +39°C° 0 mm 6 m/s 722 mmHg 26%
    14:00 +40°C° 0 mm 6 m/s 721 mmHg 24%
    15:00 +39°C° 0 mm 7 m/s 720 mmHg 25%
    16:00 +39°C° 0 mm 7 m/s 720 mmHg 26%
    17:00 +38°C° 0 mm 7 m/s 720 mmHg 27%
    18:00 +35°C° 0 mm 6 m/s 720 mmHg 31%
    19:00 +33°C° 0 mm 5 m/s 720 mmHg 35%
    20:00 +30°C° 0 mm 4 m/s 720 mmHg 40%
    21:00 +29°C° 0 mm 4 m/s 720 mmHg 42%
    22:00 +28°C° 0 mm 4 m/s 720 mmHg 44%
    23:00 +27°C° 0 mm 3 m/s 720 mmHg 46%
    Arată mai mult